Location: Oroua River
(40.4333°S, 175.4333°E)
Time: 14:43:27
(UTC+00:00)

ASTEX 1 - Pass Details

Date: 03 February 2023
Orbit: 717 x 743 km, 92.7° (Epoch: 22 March)

Event Time Altitude Azimuth Distance (km) Brightness Sun altitude
Rises 13:25:19 0° 177° (S) 3,165 7.8 -31.7°
Reaches altitude 10° 13:27:38 10° 179° (S) 2,237 6.7 -31.6°
Enters shadow 13:30:57 42° 193° (SSW) 1,040 4.4 -31.4°
